Theta_e
315 316 316 315 314 314 314 314 313 311 312 314 317 315 315 316 319 319 319 321 322 323 323 323 324 335 347 356 357 356 354 354 353 351 350 349 348 348 347 346 348 347 346 345
314 316 315 314 314 314 315 314 314 313 311 314 316 316 316 316 317 319 321 321 322 323 324 325 328 344 355 357 356 354 354 353 350 350 348 347 346 347 346 346 347 346 345 346
315 317 314 314 315 316 317 316 314 313 312 311 314 317 317 318 318 319 320 321 322 323 324 327 336 351 357 357 357 356 354 352 350 350 349 349 349 348 347 348 348 348 348 349
315 315 315 315 315 316 317 314 313 313 312 312 313 316 316 315 317 318 319 322 322 323 324 327 342 358 358 357 357 356 355 353 352 349 348 346 346 348 349 346 347 348 347 346
317 315 315 316 316 315 318 314 314 313 312 313 315 314 314 316 317 319 321 320 322 323 325 330 345 356 357 357 357 356 351 350 350 348 349 348 346 343 342 343 343 342 339 339
316 315 315 316 315 314 315 313 313 314 313 314 313 314 314 316 319 320 320 320 322 323 325 330 342 353 354 356 353 353 353 352 351 349 350 346 342 342 343 344 344 343 341 340
316 315 314 315 316 313 313 315 320 320 321 317 311 314 314 315 318 320 319 320 321 323 326 330 341 352 348 346 350 350 351 350 349 349 348 345 345 345 344 343 340 339 338 337
319 318 317 317 317 316 314 315 316 317 315 313 311 315 314 315 317 319 320 321 321 324 325 327 340 345 349 349 351 349 348 348 349 351 346 346 344 341 339 338 337 337 333 333
319 319 313 314 315 316 317 319 314 317 313 312 311 311 315 315 315 317 319 321 322 324 325 327 340 345 347 351 351 349 346 348 349 349 347 346 343 340 338 338 335 330 328 325
317 319 314 315 316 315 317 315 318 319 317 315 311 311 312 315 315 316 318 321 323 323 325 327 338 347 349 349 349 345 345 347 347 347 345 342 341 342 340 332 329 327 324 321
314 317 315 316 317 317 320 320 317 317 316 318 315 313 313 315 316 317 319 322 322 324 325 326 335 346 348 348 344 344 346 347 346 344 343 341 339 334 331 327 325 322 319 316
313 317 319 318 316 315 317 316 316 319 318 317 317 321 323 314 319 316 319 321 323 324 325 326 338 345 346 340 339 340 339 338 337 336 334 334 331 330 326 325 322 319 315 314
312 317 320 319 318 316 319 319 316 317 318 322 319 321 327 319 318 320 319 321 325 324 325 328 340 345 338 336 335 336 335 332 330 330 332 331 328 323 320 318 316 314 314 313
312 314 317 320 319 320 322 319 319 318 323 320 317 316 323 324 322 321 329 325 326 324 329 344 342 336 333 331 330 330 329 327 324 325 327 327 323 318 313 312 313 313 314 313
310 317 316 315 316 316 317 318 319 319 320 320 319 318 319 318 319 331 332 331 328 332 342 338 333 329 327 325 325 325 325 322 322 321 321 319 315 312 311 312 312 312 311 311
309 317 318 318 317 318 321 318 317 319 319 318 318 318 318 318 324 332 334 334 338 339 334 331 328 326 324 323 322 321 322 322 320 319 317 315 314 315 313 312 312 311 311 310
309 315 319 321 321 320 323 319 318 319 318 319 318 321 319 322 329 336 337 338 339 333 329 327 324 322 320 320 320 320 321 321 320 318 318 317 315 313 312 311 311 311 310 310
310 312 315 321 321 328 322 320 318 318 317 316 321 319 319 321 320 331 336 333 330 327 324 321 318 317 316 316 317 317 319 320 319 318 316 314 312 311 311 310 310 310 310 310
313 311 320 325 329 322 324 321 322 319 320 318 321 323 321 320 320 317 320 320 321 319 317 316 314 314 314 314 315 315 315 314 314 314 313 312 311 311 310 310 310 309 309 308
312 312 316 324 325 327 319 318 317 321 325 321 321 322 323 323 322 318 316 314 313 313 312 312 312 312 313 313 314 313 312 312 312 312 311 311 310 310 309 309 309 308 307 306
315 316 321 323 327 325 313 312 320 329 327 321 324 324 324 320 317 314 313 312 311 311 311 311 312 312 312 312 312 312 311 311 310 310 309 309 308 308 307 307 307 307 306 305
314 314 317 318 321 325 310 314 322 319 324 323 322 321 317 314 313 311 310 310 310 309 308 308 309 311 311 311 311 310 308 307 307 307 307 306 306 306 306 306 306 306 306 306
314 310 309 312 315 306 307 312 312 318 322 320 317 315 313 313 311 309 308 308 308 307 306 306 306 306 306 307 308 307 306 306 305 305 305 305 305 305 305 305 304 304 304 304
308 305 309 310 307 305 308 308 311 316 317 315 314 311 311 311 309 308 306 306 306 305 306 306 307 306 306 305 305 304 304 304 304 304 303 303 302 302 302 302 303 303 303 303
306 304 306 310 307 307 304 307 308 311 311 310 310 309 308 309 309 308 306 306 305 304 305 306 305 305 304 303 302 302 303 303 303 302 302 302 301 301 299 297 296 294 293 297
302 304 306 309 306 305 306 306 305 307 308 308 308 307 305 305 307 306 305 304 304 304 305 304 303 303 302 303 303 303 303 303 302 302 302 301 301 299 297 294 291 289 288 289
Wind_Speed
14 11 15 19 18 20 20 21 21 18 15 19 20 21 24 24 14 13 20 17 20 22 20 24 18 19 23 25 26 27 27 25 24 20 18 15 13 12 9 8 7 7 7 7
11 17 20 19 20 21 23 24 24 18 21 20 21 17 18 21 22 22 18 19 19 16 19 13 19 21 23 26 29 29 28 26 25 19 15 12 12 11 10 9 8 7 6 5
16 22 19 14 16 21 21 23 20 19 16 23 22 23 21 21 20 22 24 20 19 20 19 15 15 23 24 27 32 33 31 29 27 21 18 16 14 14 11 10 8 8 8 10
15 19 17 15 18 19 20 19 18 18 17 18 24 19 24 25 25 24 26 23 22 20 18 15 17 18 26 30 32 29 27 26 26 25 24 20 14 13 13 14 13 13 13 15
13 11 11 16 19 13 18 14 13 17 17 16 24 17 17 20 19 23 25 27 23 21 18 17 19 25 30 28 29 26 25 26 27 24 25 22 18 20 17 18 16 16 16 15
22 19 17 15 13 10 12 14 14 14 15 16 20 18 19 19 18 21 25 26 22 21 18 18 20 28 26 30 28 28 29 28 26 25 24 26 28 25 22 19 16 16 14 14
7 15 13 10 12 9 12 10 6 9 8 14 19 21 18 21 18 19 22 20 22 20 18 17 19 20 25 28 27 24 24 24 25 29 30 30 29 25 22 20 17 14 13 11
4 3 8 10 17 9 14 17 9 8 13 16 18 14 20 27 15 10 2 9 20 21 18 18 19 19 26 27 26 25 27 29 28 31 32 30 27 23 19 13 13 12 14 12
4 6 5 8 8 5 8 13 20 10 15 10 12 18 13 23 22 20 16 12 16 22 21 19 20 17 25 28 28 30 31 31 32 33 31 28 24 23 20 17 15 19 15 13
5 8 10 2 6 13 18 7 10 8 8 14 15 19 17 19 21 19 19 18 19 21 22 19 19 19 25 26 27 31 32 33 34 30 29 27 25 21 20 18 19 17 16 15
4 6 6 4 10 13 8 13 11 7 13 5 10 13 17 18 23 22 19 14 17 20 23 19 19 25 29 29 28 30 32 33 29 30 29 27 24 22 21 20 20 19 17 14
6 5 7 17 15 11 14 18 18 9 13 13 12 5 15 22 11 22 20 15 12 19 22 21 22 24 30 29 30 29 30 28 27 28 27 31 28 22 22 22 21 18 16 15
2 4 5 5 5 5 4 7 20 19 14 12 12 4 14 5 13 12 18 18 11 15 20 20 23 22 22 27 28 29 29 29 28 28 29 28 24 23 22 23 21 19 17 16
11 4 13 12 9 1 4 8 20 18 8 15 15 7 12 16 10 13 11 11 13 18 21 19 19 18 21 26 29 31 30 29 32 32 30 28 25 24 24 22 20 19 17 16
1 6 15 21 21 17 15 15 4 22 23 14 14 8 10 16 17 19 10 14 17 22 22 20 19 16 20 27 30 32 33 33 33 32 30 27 27 27 25 21 19 19 17 15
2 4 4 12 15 16 11 17 16 15 22 23 16 6 4 17 20 15 13 18 20 20 18 19 19 20 19 28 30 32 35 34 34 32 32 30 29 25 22 21 20 19 17 16
2 3 4 4 7 7 5 17 16 13 18 17 7 5 8 12 8 14 16 19 21 18 17 19 19 19 25 29 33 35 36 35 34 33 30 28 26 24 22 20 19 18 17 15
3 2 3 5 3 2 5 7 11 9 8 9 3 8 7 4 7 12 16 19 17 17 18 18 18 26 31 34 35 38 34 34 32 31 29 26 25 24 22 20 20 18 16 15
5 2 3 3 3 3 10 10 7 2 5 8 5 6 7 6 15 14 15 18 16 17 16 19 30 34 36 36 37 38 35 32 31 30 28 25 24 23 21 20 19 17 16 15
8 6 2 3 4 6 6 17 17 12 5 7 7 7 9 3 7 4 8 24 19 18 25 27 33 35 37 33 36 36 33 31 30 29 27 25 23 22 21 20 18 17 16 15
8 6 7 7 3 4 15 25 12 2 4 2 8 6 11 6 7 10 12 19 22 25 28 31 33 33 33 33 34 34 32 30 29 29 27 25 24 22 20 19 17 16 16 15
5 7 5 6 5 4 21 13 6 8 7 5 12 14 17 16 16 14 14 19 22 22 28 31 32 32 31 30 34 33 32 29 29 29 28 25 22 20 19 19 17 15 14 13
2 3 4 4 3 8 15 10 10 6 6 12 14 18 19 17 17 15 14 17 19 26 28 30 31 33 29 28 31 34 30 29 30 30 28 25 23 21 20 19 17 15 12 11
8 3 2 4 1 8 13 11 11 7 11 15 16 18 20 19 17 18 15 15 17 26 28 30 31 33 32 30 30 32 30 29 30 30 28 25 24 24 21 20 17 15 13 11
3 7 6 4 4 7 12 13 11 11 15 16 14 18 19 19 16 17 15 16 19 26 29 29 31 32 31 30 30 29 29 29 31 30 28 26 25 24 24 24 21 20 17 14
3 3 3 3 9 2 7 11 11 12 12 16 20 17 17 21 18 17 15 20 24 28 32 32 32 32 31 30 29 27 27 28 29 28 25 25 24 24 25 26 28 28 26 24
Wind_Direction
211 244 243 249 245 254 270 274 271 270 250 247 247 241 234 237 231 234 232 226 225 229 227 220 219 212 192 192 183 172 180 175 171 171 171 172 173 172 172 167 165 165 167 177
254 249 258 263 267 263 260 257 259 260 262 235 239 244 238 244 235 243 241 236 231 223 217 200 210 188 187 182 168 171 178 167 166 170 168 169 166 167 167 162 160 153 150 150
267 263 286 260 263 257 251 249 255 258 256 248 265 249 239 238 242 246 244 236 233 227 212 199 200 180 175 178 176 178 178 169 170 162 147 140 139 147 151 154 140 136 136 147
275 267 267 265 265 252 259 244 248 247 253 248 218 247 234 232 230 227 236 229 224 224 215 193 190 174 178 186 183 173 170 166 167 160 150 157 156 139 120 119 132 141 156 152
247 275 252 262 262 259 248 267 264 242 249 238 259 235 243 226 216 215 222 221 216 210 199 187 183 185 193 187 176 161 158 159 159 155 145 128 123 124 125 130 121 123 136 151
260 267 270 277 271 258 229 248 237 241 247 243 238 241 225 222 218 215 220 213 208 203 187 182 182 186 184 176 153 151 156 154 155 139 129 137 140 140 140 141 146 162 163 151
277 259 222 244 244 207 226 225 226 221 221 234 218 240 232 206 221 225 219 208 207 200 182 181 172 184 171 162 154 146 148 135 137 137 138 144 145 147 150 153 164 151 147 129
282 263 197 202 226 223 221 212 226 218 222 232 215 228 212 236 210 212 291 271 199 199 184 183 170 176 170 165 149 139 135 139 141 139 143 149 145 146 147 137 134 130 120 113
294 241 248 259 237 256 233 226 245 301 279 268 229 219 232 217 220 234 237 240 213 191 190 175 163 169 171 157 156 148 143 148 146 144 146 147 147 145 131 126 115 126 115 116
335 286 249 215 268 234 226 273 217 218 250 244 234 222 215 208 212 219 216 212 210 194 187 168 155 154 149 148 147 140 146 151 145 146 146 143 144 136 130 121 120 123 120 118
257 243 286 219 210 262 210 231 229 251 246 268 281 215 208 215 198 206 207 214 198 193 181 165 147 140 144 138 130 140 144 142 144 137 140 139 133 124 127 123 122 116 120 121
215 266 250 257 257 253 235 221 231 223 218 233 264 293 337 201 190 196 194 200 199 189 180 159 142 143 141 125 132 133 133 130 127 128 127 134 126 127 125 120 118 123 114 102
188 237 288 264 217 183 217 223 227 249 274 261 246 242 348 236 186 187 187 189 158 182 177 152 144 131 127 130 128 126 127 124 126 127 126 124 123 125 120 115 115 113 106 92
240 232 245 262 296 275 212 235 231 225 239 252 245 240 290 330 313 174 176 168 173 176 156 119 119 128 123 121 122 125 125 127 123 121 120 119 121 119 115 112 109 104 96 89
302 257 252 253 266 271 268 258 253 225 233 245 271 334 309 302 300 300 149 168 164 150 126 131 130 121 119 117 119 123 123 119 117 117 116 118 119 115 112 111 105 95 91 91
220 272 293 269 252 243 234 247 234 226 236 245 258 286 204 282 297 256 187 157 142 126 125 130 123 122 120 120 120 118 114 114 114 116 117 119 115 115 111 104 99 97 94 92
261 291 294 289 326 188 216 224 223 224 227 229 261 35 287 298 315 180 153 142 135 127 126 121 118 115 115 117 119 114 114 118 119 119 121 120 118 112 109 106 104 101 100 103
272 238 264 288 288 245 340 324 210 214 228 221 138 116 255 308 26 63 109 116 117 119 116 113 113 110 111 113 111 111 115 119 121 120 118 118 115 112 110 109 107 108 105 103
303 261 276 274 277 135 24 16 1 282 206 182 110 148 155 148 72 39 76 85 98 101 103 107 110 111 113 112 113 115 117 118 117 115 115 116 115 114 112 108 106 105 104 99
319 227 235 297 10 44 11 338 330 301 179 141 132 176 165 239 91 64 81 100 94 95 101 107 107 108 106 110 115 115 113 115 114 115 114 113 112 112 110 110 108 105 102 95
350 354 3 357 55 84 355 334 305 241 28 145 134 151 98 81 79 99 106 100 103 101 103 104 104 105 109 114 114 112 112 111 113 112 111 111 110 110 110 108 105 104 100 95
349 324 359 336 5 37 349 343 24 309 315 112 68 88 106 102 101 96 102 107 107 105 103 103 102 103 108 112 115 112 109 114 113 111 110 108 108 109 108 104 100 98 96 93
10 25 305 334 14 304 304 320 317 327 50 87 104 105 106 106 102 96 99 103 105 105 105 106 105 104 103 108 113 111 113 114 113 110 109 108 107 104 101 99 96 93 89 87
345 35 276 295 29 330 357 357 2 48 84 102 99 107 104 101 102 99 96 100 101 105 108 111 111 107 107 108 108 110 114 114 112 110 109 109 105 100 94 88 85 84 82 82
341 309 323 284 305 316 11 14 23 58 89 89 86 100 101 97 100 105 100 103 104 107 105 107 108 108 108 109 108 112 115 116 113 111 112 108 102 98 92 79 76 74 64 65
328 318 338 326 330 16 12 27 45 60 86 103 103 90 91 99 96 100 99 105 107 107 112 109 107 106 108 108 111 114 117 117 115 114 112 110 107 103 99 96 85 78 79 78